{"data":{"norad_id":59849,"epoch":"2026-09-21T05:32:25.293984Z","epoch_age_seconds":111250,"freshness":"FRESH","line1":"1 59849U 24097Q   26264.23084831 -.00000119  00000+0  52047-5 0  9990","line2":"2 59849  43.0032 249.9357 0001571 268.6683  91.3989 15.27563324131823","mean_motion":15.27563324,"eccentricity":0.0001571,"inclination_deg":43.0032,"raan_deg":249.9357,"arg_perigee_deg":268.6683,"mean_anomaly_deg":91.3989,"bstar":5.2047e-6,"rev_number":13182,"period_min":94.26777779852,"perigee_km":482.02113025669,"apogee_km":484.17693061746,"semimajor_km":6861.2360304371,"source":"CELESTRAK","updated_at":"2026-09-22T09:00:49.098009Z"}}